This is the latest recevied weather packets stored in our database for station/object DL3TR-13. If no packets are shown the sender has not sent any weather packets the latest 10 day(s).
| Time | Temp. | Humidity | Pressure | Rain* | Wind** | Luminosity | Snow |
|---|---|---|---|---|---|---|---|
| 1777669990 | 12.22° C | 50% | 1022.4 hPa | 0 mm | - | 0 W/m² | - |
| 1777669391 | 12.78° C | 50% | 1022.5 hPa | 0 mm | - | 0 W/m² | - |
| 1777668790 | 13.33° C | 48% | 1022.5 hPa | 0 mm | - | 0 W/m² | - |
| 1777668190 | 14.44° C | 44% | 1022.5 hPa | 0 mm | - | 0 W/m² | - |
| 1777667591 | 15° C | 42% | 1022.6 hPa | 0 mm | - | 0 W/m² | - |
| 1777666990 | 15.56° C | 41% | 1022.6 hPa | 0 mm | - | 0 W/m² | - |
| 1777666390 | 15.56° C | 41% | 1022.7 hPa | 0 mm | - | 0 W/m² | - |
| 1777665790 | 15.56° C | 40% | 1022.7 hPa | 0 mm | - | 0 W/m² | - |
| 1777665190 | 15.56° C | 39% | 1022.6 hPa | 0 mm | - | 0 W/m² | - |
| 1777664590 | 16.11° C | 39% | 1022.4 hPa | 0 mm | - | 0 W/m² | - |
| 1777663990 | 16.11° C | 38% | 1022.3 hPa | 0 mm | - | 0 W/m² | - |
| 1777663390 | 16.11° C | 38% | 1022.3 hPa | 0 mm | - | 0 W/m² | - |
| 1777662790 | 16.11° C | 38% | 1022.2 hPa | 0 mm | - | 0 W/m² | - |
| 1777662190 | 16.67° C | 37% | 1022.2 hPa | 0 mm | - | 0 W/m² | - |
| 1777661590 | 16.67° C | 36% | 1022.1 hPa | 0 mm | - | 0 W/m² | - |
| 1777660990 | 17.22° C | 36% | 1022.2 hPa | 0 mm | - | 0 W/m² | - |
| 1777660390 | 17.22° C | 35% | 1022.1 hPa | 0 mm | - | 5 W/m² | - |
| 1777659790 | 17.78° C | 34% | 1022 hPa | 0 mm | - | 11 W/m² | - |
| 1777659190 | 18.33° C | 33% | 1022 hPa | 0 mm | - | 16 W/m² | - |
| 1777658590 | 18.33° C | 32% | 1022.1 hPa | 0 mm | - | 19 W/m² | - |
| 1777657990 | 18.89° C | 31% | 1022 hPa | 0 mm | - | 23 W/m² | - |
| 1777657390 | 18.89° C | 31% | 1022 hPa | 0 mm | - | 26 W/m² | - |
| 1777656790 | 19.44° C | 31% | 1022 hPa | 0 mm | - | 28 W/m² | - |
| 1777656190 | 19.44° C | 30% | 1022 hPa | 0 mm | - | 32 W/m² | - |
| 1777655599 | 19.44° C | 29% | 1022 hPa | 0 mm | - | 33 W/m² | - |
* Rain latest hour (hover to see other rain measurements)
** Current wind speed in m/s (hover to see current wind gust speed)